Torna al catalogo

CZ-3B R/B

AttivoHEO
NORAD 39459·ROCKET BODY·🇨🇳 China

Lanciato Dec 1, 2013 da Xichang Satellite Launch Center

Loading…

Prossimi Passaggi (prossime 24 ore)

TLE

AggiornatoSource: Space-Track

Epoca: Sep 10, 2026, 03:47 UTC

1 39459U 13070B   26253.15808511 -.00031905  00000-0  00000-0 0  9997
2 39459  69.7637   2.0173 8376744 140.8446   4.1132  0.05566925 37288

Traccia CZ-3B R/B in tempo reale con AllMySat

Download on the App Store